Regional Weather Roundup
Issued by NWS

Home | Current Version | Previous Version | Graphics & Text | Print | Product List | Glossary On
Versions: 1 2 3 4 5 6 7 8 9 10 11 12 13 14 15 16 17 18 19 20 21 22 23 24 25 26 27 28 29 30 31 32 33 34 35 36 37 38 39 40 41 42 43 44 45 46 47 48 49 50
722
ASUS43 KLSX 040707
RWRMO

WEATHER SUMMARY FOR MISSOURI
NATIONAL WEATHER SERVICE SPRINGFIELD MO
200 AM CDT WED MAY 04 2016

NOTE: "FAIR" INDICATES FEW OR NO CLOUDS BELOW 12,000 FEET WITH NO
       SIGNIFICANT WEATHER AND/OR OBSTRUCTIONS TO VISIBILITY.
       CURRENT SKY AND/OR WEATHER CONDITIONS ARE NOT AVAILABLE FOR
       CHILLICOTHE AND FARMINGTON.

MOZ001>031-035>038-043-044-053-054-040800-
...NORTHERN AND WESTERN MISSOURI...

CITY           SKY/WX    TMP DP  RH WIND       PRES   REMARKS
KANSAS CTY INT CLEAR     54  43  66 SW9       29.87F
KANSAS C DTWN  CLEAR     58  45  62 SW9       29.87F
LEE`S SUMMIT   CLEAR     55  45  68 SW8       29.88F
ST JOSEPH      PTCLDY    58  42  55 W10       29.86F
CHILLICOTHE      N/A     59  44  57 VRB6      29.82F
KIRKSVILLE     CLOUDY    59  41  51 W10       29.76F

$$
MOZ066>068-077>081-088>096-101>105-040800-
...SOUTHWEST MISSOURI...

CITY           SKY/WX    TMP DP  RH WIND       PRES   REMARKS
SPRINGFIELD    PTCLDY    50  41  71 SW8       29.94F
JOPLIN         MOCLDY    57  46  66 SW9       29.97S

$$
MOZ032>034-039>042-045>050-055>058-069>072-040800-
...CENTRAL MISSOURI...

CITY           SKY/WX    TMP DP  RH WIND       PRES   REMARKS
COLUMBIA       CLEAR     53  43  68 SW10      29.84F
JEFFERSON CITY CLEAR     55  43  63 W6        29.85F
ROLLA          MOCLDY    48  41  76 SW12      29.86F
SEDALIA        CLEAR     56  46  69 SW13      29.87F
WHITEMAN AFB   CLEAR     56  46  70 SW12      29.86F
WARRENSBURG    CLEAR     55  45  67 SW12      29.87F
OSAGE BEACH    MOCLDY    52  37  58 SW6       29.90F

$$
MOZ051-052-059>065-040800-
...EAST CENTRAL MISSOURI...

CITY           SKY/WX    TMP DP  RH WIND       PRES   REMARKS
ST LOUIS INTL  PTCLDY    55  42  61 SW13      29.82F
SPIRIT OF STL  CLEAR     54  42  64 SW8       29.82F
ST CHARLES     PTCLDY    55  43  63 W10       29.80F

$$
MOZ072>076-082>087-097>100-106>115-040800-
...SOUTH CENTRAL AND SOUTHEAST MISSOURI...

CITY           SKY/WX    TMP DP  RH WIND       PRES   REMARKS
CAPE GIRARDEAU PTCLDY    47  46  97 CALM      29.90F
FARMINGTON     CLEAR     45  43  93 CALM      29.89F
POPLAR BLUFF   CLEAR     50  48  93 CALM      29.92F
WEST PLAINS    CLEAR     47  40  76 W6        29.95F

$$



USA.gov is the U.S. government's official web portal to all federal, state and local government web resources and services.